• In Czech Republic
  • List of Countries
  • For 7 days
  • Water Temperature
  • Satellite Maps
  • Weather Map
  • Weather Widgets
  • user-avatar
    Login

    Hourly Weather Arvada

    Today, 22 April, Sunday

    Time Temperature Precipitation Wind Pressure Humidity
    00:00 +3°C° 0 mm 2 mps 624 mmHg 84%
    01:00 +3°C° 0 mm 2 mps 624 mmHg 84%
    02:00 +2°C° 0 mm 2 mps 623 mmHg 84%
    03:00 +2°C° 0 mm 2 mps 623 mmHg 83%
    04:00 +2°C° 0 mm 2 mps 623 mmHg 82%
    05:00 +2°C° 0 mm 2 mps 623 mmHg 81%
    06:00 +6°C° 0 mm 1 mps 624 mmHg 74%
    07:00 +9°C° 0 mm 1 mps 625 mmHg 66%
    08:00 +11°C° 0 mm 1 mps 626 mmHg 59%
    09:00 +13°C° 0 mm 2 mps 626 mmHg 54%
    10:00 +15°C° 0 mm 2 mps 627 mmHg 49%
    11:00 +16°C° 0 mm 3 mps 627 mmHg 43%
    12:00 +17°C° 0 mm 3 mps 627 mmHg 42%
    13:00 +17°C° 0 mm 3 mps 626 mmHg 41%
    14:00 +18°C° 0 mm 3 mps 626 mmHg 40%
    15:00 +18°C° 0.1 mm 2 mps 626 mmHg 41%
    16:00 +17°C° 0.1 mm 2 mps 625 mmHg 42%
    17:00 +17°C° 0.1 mm 2 mps 625 mmHg 43%
    18:00 +15°C° 0 mm 2 mps 625 mmHg 48%
    19:00 +13°C° 0 mm 2 mps 624 mmHg 54%
    20:00 +10°C° 0 mm 2 mps 624 mmHg 59%
    21:00 +9°C° 0.1 mm 2 mps 624 mmHg 61%
    22:00 +9°C° 0.1 mm 2 mps 624 mmHg 62%
    23:00 +9°C° 0.1 mm 2 mps 625 mmHg 64%

    Tomorrow, 23 April, Monday

    Time Temperature Precipitation Wind Pressure Humidity
    00:00 +8°C° 0 mm 2 mps 624 mmHg 65%
    01:00 +8°C° 0 mm 2 mps 624 mmHg 65%
    02:00 +8°C° 0 mm 2 mps 624 mmHg 66%
    03:00 +8°C° 0 mm 2 mps 623 mmHg 68%
    04:00 +7°C° 0 mm 2 mps 623 mmHg 69%
    05:00 +6°C° 0 mm 2 mps 623 mmHg 71%
    06:00 +9°C° 0 mm 2 mps 623 mmHg 63%
    07:00 +12°C° 0 mm 2 mps 624 mmHg 55%
    08:00 +15°C° 0 mm 1 mps 625 mmHg 47%
    09:00 +17°C° 0.1 mm 2 mps 625 mmHg 42%
    10:00 +19°C° 0.1 mm 2 mps 625 mmHg 38%
    11:00 +20°C° 0.1 mm 2 mps 626 mmHg 33%
    12:00 +21°C° 0 mm 2 mps 625 mmHg 31%
    13:00 +23°C° 0 mm 2 mps 625 mmHg 29%
    14:00 +24°C° 0 mm 1 mps 625 mmHg 27%
    15:00 +23°C° 0.1 mm 2 mps 625 mmHg 29%
    16:00 +23°C° 0.1 mm 2 mps 624 mmHg 31%
    17:00 +21°C° 0.1 mm 2 mps 624 mmHg 32%
    18:00 +18°C° 0.2 mm 3 mps 624 mmHg 42%
    19:00 +15°C° 0.2 mm 4 mps 624 mmHg 52%
    20:00 +12°C° 0.2 mm 5 mps 624 mmHg 62%
    21:00 +9°C° 0.2 mm 5 mps 624 mmHg 69%
    22:00 +8°C° 0.2 mm 4 mps 624 mmHg 75%
    23:00 +6°C° 0.2 mm 4 mps 624 mmHg 82%

    Day after tomorrow, 24 April, Tuesday

    Time Temperature Precipitation Wind Pressure Humidity
    00:00 +6°C° 0.8 mm 4 mps 625 mmHg 83%
    01:00 +5°C° 0.8 mm 4 mps 625 mmHg 83%
    02:00 +4°C° 0.8 mm 4 mps 625 mmHg 84%
    03:00 +4°C° 0.3 mm 4 mps 625 mmHg 84%
    04:00 +3°C° 0.3 mm 4 mps 626 mmHg 85%
    05:00 +1°C° 0.3 mm 4 mps 626 mmHg 85%
    06:00 +1°C° 0.3 mm 4 mps 626 mmHg 84%
    07:00 +1°C° 0.3 mm 4 mps 626 mmHg 83%
    08:00 +1°C° 0.3 mm 4 mps 627 mmHg 81%
    09:00 +3°C° 0.2 mm 4 mps 627 mmHg 78%
    10:00 +3°C° 0.2 mm 4 mps 627 mmHg 74%
    11:00 +4°C° 0.2 mm 3 mps 627 mmHg 71%
    12:00 +4°C° 0.4 mm 3 mps 627 mmHg 71%
    13:00 +4°C° 0.4 mm 3 mps 627 mmHg 71%
    14:00 +5°C° 0.4 mm 3 mps 627 mmHg 71%
    15:00 +5°C° 0.3 mm 3 mps 627 mmHg 70%
    16:00 +5°C° 0.3 mm 2 mps 627 mmHg 70%
    17:00 +5°C° 0.3 mm 2 mps 627 mmHg 70%
    18:00 +5°C° 0.1 mm 2 mps 628 mmHg 72%
    19:00 +5°C° 0.1 mm 1 mps 628 mmHg 74%
    20:00 +5°C° 0.1 mm 1 mps 629 mmHg 77%
    21:00 +4°C° 0 mm 1 mps 629 mmHg 78%
    22:00 +4°C° 0 mm 1 mps 629 mmHg 79%
    23:00 +3°C° 0 mm 1 mps 629 mmHg 79%

    25 April, Wednesday

    Time Temperature Precipitation Wind Pressure Humidity
    00:00 +2°C° 0 mm 1 mps 628 mmHg 81%
    01:00 +2°C° 0 mm 1 mps 628 mmHg 82%
    02:00 +1°C° 0 mm 1 mps 627 mmHg 83%
    03:00 +1°C° 0 mm 1 mps 627 mmHg 82%
    04:00 -1°C° 0 mm 2 mps 627 mmHg 81%
    05:00 -1°C° 0 mm 2 mps 627 mmHg 81%
    06:00 +2°C° 0 mm 2 mps 627 mmHg 71%
    07:00 +5°C° 0 mm 2 mps 628 mmHg 61%
    08:00 +8°C° 0 mm 2 mps 628 mmHg 51%
    09:00 +11°C° 0 mm 1 mps 628 mmHg 45%
    10:00 +13°C° 0 mm 1 mps 628 mmHg 40%
    11:00 +15°C° 0 mm 1 mps 629 mmHg 35%
    12:00 +16°C° 0 mm 1 mps 628 mmHg 32%
    13:00 +19°C° 0 mm 1 mps 628 mmHg 29%
    14:00 +19°C° 0 mm 2 mps 627 mmHg 26%
    15:00 +19°C° 0 mm 2 mps 627 mmHg 27%
    16:00 +19°C° 0 mm 2 mps 627 mmHg 28%
    17:00 +19°C° 0 mm 2 mps 626 mmHg 29%
    18:00 +16°C° 0 mm 2 mps 625 mmHg 34%
    19:00 +13°C° 0 mm 3 mps 625 mmHg 38%
    20:00 +10°C° 0 mm 3 mps 624 mmHg 43%
    21:00 +9°C° 0 mm 3 mps 624 mmHg 45%
    22:00 +9°C° 0 mm 3 mps 624 mmHg 46%
    23:00 +8°C° 0 mm 3 mps 624 mmHg 47%

    26 April, Thursday

    Time Temperature Precipitation Wind Pressure Humidity
    00:00 +8°C° 0 mm 3 mps 624 mmHg 49%
    01:00 +7°C° 0 mm 3 mps 623 mmHg 50%
    02:00 +7°C° 0 mm 3 mps 623 mmHg 52%
    03:00 +6°C° 0 mm 2 mps 624 mmHg 56%
    04:00 +5°C° 0 mm 2 mps 624 mmHg 60%
    05:00 +4°C° 0 mm 2 mps 624 mmHg 64%
    06:00 +6°C° 0 mm 2 mps 625 mmHg 61%
    07:00 +8°C° 0 mm 2 mps 626 mmHg 58%
    08:00 +10°C° 0 mm 2 mps 627 mmHg 55%
    09:00 +13°C° 0 mm 2 mps 627 mmHg 50%
    10:00 +14°C° 0 mm 2 mps 627 mmHg 46%
    11:00 +16°C° 0 mm 2 mps 628 mmHg 42%
    12:00 +17°C° 0 mm 2 mps 627 mmHg 39%
    13:00 +18°C° 0 mm 2 mps 627 mmHg 36%
    14:00 +19°C° 0 mm 3 mps 627 mmHg 33%
    15:00 +19°C° 0 mm 3 mps 626 mmHg 35%
    16:00 +19°C° 0 mm 3 mps 626 mmHg 36%
    17:00 +18°C° 0 mm 3 mps 626 mmHg 37%
    18:00 +16°C° 0 mm 3 mps 625 mmHg 43%
    19:00 +14°C° 0 mm 2 mps 625 mmHg 49%
    20:00 +10°C° 0 mm 2 mps 625 mmHg 54%
    21:00 +10°C° 0 mm 2 mps 625 mmHg 56%
    22:00 +9°C° 0 mm 2 mps 624 mmHg 58%
    23:00 +8°C° 0 mm 2 mps 624 mmHg 60%

    27 April, Friday

    Time Temperature Precipitation Wind Pressure Humidity
    00:00 +8°C° 0 mm 2 mps 624 mmHg 61%
    01:00 +8°C° 0 mm 2 mps 623 mmHg 62%
    02:00 +7°C° 0 mm 2 mps 623 mmHg 63%
    03:00 +7°C° 0 mm 2 mps 623 mmHg 64%
    04:00 +7°C° 0 mm 2 mps 623 mmHg 64%
    05:00 +7°C° 0 mm 2 mps 623 mmHg 64%
    06:00 +9°C° 0 mm 2 mps 623 mmHg 56%
    07:00 +13°C° 0 mm 1 mps 624 mmHg 48%
    08:00 +16°C° 0 mm 1 mps 624 mmHg 40%
    09:00 +19°C° 0 mm 1 mps 625 mmHg 36%
    10:00 +20°C° 0 mm 1 mps 625 mmHg 32%
    11:00 +21°C° 0 mm 2 mps 625 mmHg 28%
    12:00 +23°C° 0 mm 2 mps 624 mmHg 27%
    13:00 +23°C° 0 mm 2 mps 624 mmHg 26%
    14:00 +24°C° 0 mm 3 mps 624 mmHg 25%
    15:00 +22°C° 0.1 mm 3 mps 623 mmHg 28%
    16:00 +21°C° 0.1 mm 3 mps 623 mmHg 32%
    17:00 +20°C° 0.1 mm 2 mps 622 mmHg 35%
    18:00 +18°C° 0 mm 2 mps 622 mmHg 41%
    19:00 +16°C° 0 mm 2 mps 621 mmHg 47%
    20:00 +14°C° 0 mm 2 mps 621 mmHg 53%
    21:00 +14°C° 0 mm 2 mps 621 mmHg 55%
    22:00 +13°C° 0 mm 2 mps 620 mmHg 57%
    23:00 +13°C° 0 mm 2 mps 620 mmHg 59%
    Show more